When you browse on this site, cookies collect data to enhance your experience and personalize the content and advertising you see.
Visit our Privacy Policy to learn more. By continuing to use the site, you agree to this use of cookies and data.
  • In Hungary
  • List of Countries
  • For 7 days
  • Water Temperature
  • Weather Map
  • News
  • Weather Widgets
  • user-avatar
    Login

    Hourly Weather Lyudskoe

    Today, 17 February, Monday

    Time Temperature Precipitation Wind Pressure Humidity
    00:00 -2°C° 0 mm 8 mps 747 mmHg 86%
    01:00 -4°C° 0 mm 8 mps 746 mmHg 84%
    02:00 -4°C° 0 mm 8 mps 746 mmHg 82%
    03:00 -4°C° 0 mm 8 mps 745 mmHg 81%
    04:00 -4°C° 0 mm 9 mps 745 mmHg 80%
    05:00 -4°C° 0 mm 9 mps 744 mmHg 79%
    06:00 -4°C° 0 mm 9 mps 744 mmHg 78%
    07:00 -4°C° 0 mm 9 mps 744 mmHg 78%
    08:00 -4°C° 0 mm 9 mps 744 mmHg 79%
    09:00 -3°C° 0 mm 10 mps 743 mmHg 77%
    10:00 -3°C° 0 mm 10 mps 743 mmHg 76%
    11:00 -2°C° 0 mm 10 mps 742 mmHg 75%
    12:00 -2°C° 0 mm 10 mps 742 mmHg 74%
    13:00 -2°C° 0 mm 10 mps 742 mmHg 74%
    14:00 -1°C° 0 mm 9 mps 741 mmHg 76%
    15:00 -1°C° 0 mm 9 mps 741 mmHg 75%
    16:00 -1°C° 0 mm 9 mps 741 mmHg 75%
    17:00 -1°C° 0 mm 9 mps 741 mmHg 75%
    18:00 -1°C° 0 mm 8 mps 741 mmHg 75%
    19:00 -1°C° 0 mm 8 mps 741 mmHg 75%
    20:00 -1°C° 0 mm 7 mps 742 mmHg 76%
    21:00 -1°C° 0 mm 7 mps 742 mmHg 77%
    22:00 -1°C° 0 mm 6 mps 742 mmHg 79%
    23:00 -1°C° 0 mm 6 mps 741 mmHg 81%

    Tomorrow, 18 February, Tuesday

    Time Temperature Precipitation Wind Pressure Humidity
    00:00 0°C° 0.4 mm 5 mps 741 mmHg 84%
    01:00 0°C° 0.4 mm 5 mps 741 mmHg 87%
    02:00 -1°C° 0.4 mm 5 mps 741 mmHg 90%
    03:00 -1°C° 1.2 mm 5 mps 741 mmHg 92%
    04:00 -1°C° 1.2 mm 4 mps 741 mmHg 93%
    05:00 -1°C° 1.2 mm 4 mps 741 mmHg 95%
    06:00 -1°C° 0.9 mm 4 mps 741 mmHg 95%
    07:00 -1°C° 0.9 mm 4 mps 741 mmHg 96%
    08:00 -1°C° 0.9 mm 4 mps 741 mmHg 96%
    09:00 -1°C° 0.7 mm 4 mps 740 mmHg 96%
    10:00 -1°C° 0.7 mm 4 mps 740 mmHg 95%
    11:00 -1°C° 0.7 mm 5 mps 740 mmHg 95%
    12:00 -1°C° 1.2 mm 4 mps 739 mmHg 96%
    13:00 -2°C° 1.2 mm 4 mps 739 mmHg 97%
    14:00 -2°C° 1.2 mm 4 mps 738 mmHg 98%
    15:00 -2°C° 1.1 mm 4 mps 738 mmHg 98%
    16:00 0°C° 1.1 mm 3 mps 738 mmHg 98%
    17:00 0°C° 1.1 mm 3 mps 737 mmHg 98%
    18:00 -1°C° 0.5 mm 4 mps 737 mmHg 98%
    19:00 -1°C° 0.5 mm 4 mps 737 mmHg 98%
    20:00 -1°C° 0.5 mm 4 mps 737 mmHg 98%
    21:00 -1°C° 0.1 mm 4 mps 737 mmHg 97%
    22:00 -1°C° 0.1 mm 4 mps 737 mmHg 96%
    23:00 -1°C° 0.1 mm 4 mps 737 mmHg 95%

    Day after tomorrow, 19 February, Wednesday

    Time Temperature Precipitation Wind Pressure Humidity
    00:00 -1°C° 0 mm 4 mps 737 mmHg 95%
    01:00 -1°C° 0 mm 4 mps 738 mmHg 95%
    02:00 -2°C° 0 mm 4 mps 738 mmHg 95%
    03:00 -2°C° 0 mm 4 mps 738 mmHg 95%
    04:00 -2°C° 0 mm 4 mps 738 mmHg 94%
    05:00 -2°C° 0 mm 4 mps 738 mmHg 93%
    06:00 -2°C° 0 mm 4 mps 738 mmHg 94%
    07:00 -2°C° 0 mm 4 mps 738 mmHg 94%
    08:00 -2°C° 0 mm 5 mps 739 mmHg 95%
    09:00 -1°C° 0 mm 5 mps 739 mmHg 93%
    10:00 -1°C° 0 mm 5 mps 739 mmHg 91%
    11:00 0°C° 0 mm 5 mps 739 mmHg 89%
    12:00 0°C° 0 mm 4 mps 739 mmHg 88%
    13:00 0°C° 0 mm 4 mps 739 mmHg 88%
    14:00 0°C° 0 mm 4 mps 740 mmHg 88%
    15:00 0°C° 0 mm 4 mps 739 mmHg 88%
    16:00 0°C° 0 mm 3 mps 739 mmHg 87%
    17:00 0°C° 0 mm 3 mps 739 mmHg 87%
    18:00 0°C° 0 mm 3 mps 740 mmHg 87%
    19:00 +1°C° 0 mm 2 mps 740 mmHg 86%
    20:00 +1°C° 0 mm 2 mps 740 mmHg 86%
    21:00 +1°C° 0 mm 2 mps 740 mmHg 87%
    22:00 -1°C° 0 mm 2 mps 740 mmHg 87%
    23:00 -1°C° 0 mm 2 mps 740 mmHg 88%

    20 February, Thursday

    Time Temperature Precipitation Wind Pressure Humidity
    00:00 -1°C° 0 mm 2 mps 741 mmHg 89%
    01:00 -2°C° 0 mm 2 mps 741 mmHg 89%
    02:00 -2°C° 0 mm 2 mps 741 mmHg 90%
    03:00 -2°C° 0 mm 2 mps 741 mmHg 90%
    04:00 -2°C° 0 mm 2 mps 741 mmHg 89%
    05:00 -2°C° 0 mm 2 mps 741 mmHg 89%
    06:00 -2°C° 0 mm 2 mps 741 mmHg 88%
    07:00 -2°C° 0 mm 2 mps 741 mmHg 87%
    08:00 -1°C° 0 mm 2 mps 742 mmHg 87%
    09:00 -1°C° 0 mm 2 mps 742 mmHg 86%
    10:00 +1°C° 0 mm 2 mps 742 mmHg 85%
    11:00 +2°C° 0 mm 2 mps 742 mmHg 84%
    12:00 +2°C° 0 mm 2 mps 742 mmHg 84%
    13:00 +2°C° 0 mm 2 mps 742 mmHg 84%
    14:00 +2°C° 0 mm 2 mps 742 mmHg 85%
    15:00 +2°C° 0 mm 2 mps 742 mmHg 86%
    16:00 +1°C° 0 mm 2 mps 743 mmHg 87%
    17:00 -1°C° 0 mm 2 mps 743 mmHg 88%
    18:00 -1°C° 0 mm 2 mps 743 mmHg 89%
    19:00 -1°C° 0 mm 2 mps 743 mmHg 90%
    20:00 -1°C° 0 mm 2 mps 744 mmHg 90%
    21:00 -1°C° 0 mm 2 mps 744 mmHg 90%
    22:00 -2°C° 0 mm 2 mps 744 mmHg 91%
    23:00 -2°C° 0 mm 2 mps 744 mmHg 91%

    21 February, Friday

    Time Temperature Precipitation Wind Pressure Humidity
    00:00 -2°C° 0 mm 2 mps 745 mmHg 91%
    01:00 -2°C° 0 mm 2 mps 745 mmHg 91%
    02:00 -2°C° 0 mm 2 mps 745 mmHg 91%
    03:00 -2°C° 0 mm 2 mps 745 mmHg 92%
    04:00 -2°C° 0 mm 2 mps 745 mmHg 92%
    05:00 -2°C° 0 mm 2 mps 745 mmHg 93%
    06:00 -2°C° 0 mm 2 mps 745 mmHg 93%
    07:00 0°C° 0 mm 1 mps 745 mmHg 93%
    08:00 0°C° 0 mm 1 mps 746 mmHg 93%
    15:00 0°C° 0 mm 3 mps 745 mmHg 86%
    16:00 0°C° 0 mm 3 mps 745 mmHg 88%
    17:00 0°C° 0 mm 3 mps 744 mmHg 90%
    18:00 -1°C° 0 mm 3 mps 744 mmHg 89%
    19:00 -1°C° 0 mm 3 mps 744 mmHg 88%
    20:00 -2°C° 0 mm 4 mps 744 mmHg 88%
    21:00 -1°C° 0 mm 3 mps 744 mmHg 87%
    22:00 -1°C° 0 mm 3 mps 744 mmHg 87%
    23:00 -2°C° 0 mm 3 mps 744 mmHg 86%

    22 February, Saturday

    Time Temperature Precipitation Wind Pressure Humidity
    00:00 -2°C° 0 mm 3 mps 744 mmHg 87%
    01:00 -2°C° 0 mm 3 mps 744 mmHg 87%
    02:00 -2°C° 0 mm 3 mps 744 mmHg 88%
    03:00 -2°C° 0 mm 3 mps 744 mmHg 88%
    04:00 -2°C° 0 mm 3 mps 744 mmHg 88%
    05:00 -2°C° 0 mm 3 mps 744 mmHg 88%
    06:00 -2°C° 0 mm 3 mps 744 mmHg 89%
    07:00 -3°C° 0 mm 4 mps 744 mmHg 89%
    08:00 -3°C° 0 mm 4 mps 745 mmHg 90%
    09:00 -2°C° 0 mm 4 mps 745 mmHg 88%
    10:00 -2°C° 0 mm 4 mps 745 mmHg 87%
    11:00 -1°C° 0 mm 4 mps 745 mmHg 85%
    12:00 -1°C° 0 mm 4 mps 745 mmHg 85%
    13:00 -1°C° 0 mm 4 mps 744 mmHg 85%
    14:00 -1°C° 0 mm 5 mps 744 mmHg 85%
    15:00 -1°C° 0 mm 4 mps 743 mmHg 87%
    16:00 -1°C° 0 mm 4 mps 743 mmHg 90%
    17:00 -1°C° 0 mm 4 mps 743 mmHg 92%
    18:00 -2°C° 0 mm 4 mps 742 mmHg 92%
    19:00 -2°C° 0 mm 5 mps 742 mmHg 92%
    20:00 -2°C° 0 mm 5 mps 742 mmHg 92%
    21:00 -2°C° 0 mm 5 mps 741 mmHg 89%
    22:00 -3°C° 0 mm 6 mps 740 mmHg 87%
    23:00 -3°C° 0 mm 6 mps 739 mmHg 84%
    Show more